Time,TemperatureF,DewpointF,PressureIn,WindDirection,WindDirectionDegrees,WindSpeedMPH,WindSpeedGustMPH,Humidity,HourlyPrecipIn,Conditions,Clouds,dailyrainin,SoftwareType,DateUTC
2013-05-26 00:01:00,58.3,42.7,30.25,NNE,23,0.4,1.1,56,0.00,,,0.00,WUHU216HW,2013-05-26 04:01:00,
2013-05-26 00:03:00,58.1,42.9,30.26,North,0,0.7,1.1,57,0.00,,,0.00,WUHU216HW,2013-05-26 04:03:00,
2013-05-26 00:08:00,58.0,42.9,30.26,North,0,1.1,1.1,57,0.00,,,0.00,WUHU216HW,2013-05-26 04:08:00,
2013-05-26 00:13:00,58.0,43.3,30.26,NW,315,0.7,1.1,58,0.00,,,0.00,WUHU216HW,2013-05-26 04:13:00,
2013-05-26 00:18:00,57.8,43.1,30.26,NNE,23,0.4,1.1,58,0.00,,,0.00,WUHU216HW,2013-05-26 04:18:00,
2013-05-26 00:23:00,58.0,42.9,30.26,NNE,23,1.1,1.1,57,0.00,,,0.00,WUHU216HW,2013-05-26 04:23:00,
2013-05-26 00:28:00,58.1,43.5,30.26,NNE,23,0.0,1.1,58,0.00,,,0.00,WUHU216HW,2013-05-26 04:28:00,
2013-05-26 00:33:00,58.3,43.6,30.25,NNE,23,0.0,1.1,58,0.00,,,0.00,WUHU216HW,2013-05-26 04:33:00,
2013-05-26 00:39:00,58.5,43.7,30.25,NE,45,0.4,0.4,58,0.00,,,0.00,WUHU216HW,2013-05-26 04:39:00,
2013-05-26 00:44:00,58.5,43.7,30.25,North,0,0.4,0.4,58,0.00,,,0.00,WUHU216HW,2013-05-26 04:44:00,
2013-05-26 00:49:00,58.7,44.4,30.26,NNE,23,1.3,1.3,59,0.00,,,0.00,WUHU216HW,2013-05-26 04:49:00,
2013-05-26 00:54:00,58.7,44.4,30.26,NNE,23,0.2,1.3,59,0.00,,,0.00,WUHU216HW,2013-05-26 04:54:00,
2013-05-26 00:59:00,58.7,44.4,30.26,NNE,23,0.0,1.3,59,0.00,,,0.00,WUHU216HW,2013-05-26 04:59:00,
2013-05-26 01:04:00,58.0,43.3,30.26,NNE,23,0.2,0.2,58,0.00,,,0.00,WUHU216HW,2013-05-26 05:04:00,
2013-05-26 01:09:00,58.0,43.7,30.26,NNW,338,0.0,0.2,59,0.00,,,0.00,WUHU216HW,2013-05-26 05:09:00,
2013-05-26 01:14:00,57.6,43.4,30.26,NNW,338,0.0,0.0,59,0.00,,,0.00,WUHU216HW,2013-05-26 05:14:00,
2013-05-26 01:20:00,57.4,43.8,30.26,ENE,68,0.9,0.9,60,0.00,,,0.00,WUHU216HW,2013-05-26 05:20:00,
2013-05-26 01:25:00,57.4,44.6,30.26,NNE,23,1.1,1.1,62,0.00,,,0.00,WUHU216HW,2013-05-26 05:25:00,
2013-05-26 01:30:00,57.6,44.6,30.26,NNE,23,0.9,1.1,62,0.00,,,0.00,WUHU216HW,2013-05-26 05:30:00,
2013-05-26 01:35:00,57.8,44.8,30.26,North,0,0.2,1.1,62,0.00,,,0.00,WUHU216HW,2013-05-26 05:35:00,
2013-05-26 01:40:00,58.0,45.0,30.26,North,0,1.3,1.3,62,0.00,,,0.00,WUHU216HW,2013-05-26 05:40:00,
2013-05-26 01:45:00,58.3,45.4,30.25,NNE,23,1.8,1.8,62,0.00,,,0.00,WUHU216HW,2013-05-26 05:45:00,
2013-05-26 01:50:00,58.7,45.7,30.25,NE,45,0.9,1.8,62,0.00,,,0.00,WUHU216HW,2013-05-26 05:50:00,
2013-05-26 01:55:00,58.9,45.8,30.25,North,11,0.3,1.1,62,0.00,,,0.00,WUHU216HW,2013-05-26 05:55:00,
2013-05-26 02:00:00,58.9,45.8,30.25,North,0,0.0,0.7,62,0.00,,,0.00,WUHU216HW,2013-05-26 06:00:00,
2013-05-26 02:05:00,58.9,45.8,30.25,North,0,0.4,0.4,62,0.00,,,0.00,WUHU216HW,2013-05-26 06:05:00,
2013-05-26 02:10:00,58.9,45.8,30.25,North,0,0.2,0.4,62,0.00,,,0.00,WUHU216HW,2013-05-26 06:10:00,
2013-05-26 02:15:00,58.9,45.8,30.25,North,0,0.0,0.4,62,0.00,,,0.00,WUHU216HW,2013-05-26 06:15:00,
2013-05-26 02:21:00,58.9,46.3,30.25,NNW,338,0.0,0.0,63,0.00,,,0.00,WUHU216HW,2013-05-26 06:21:00,
2013-05-26 02:26:00,58.7,46.1,30.25,ENE,68,0.4,0.4,63,0.00,,,0.00,WUHU216HW,2013-05-26 06:26:00,
2013-05-26 02:31:00,58.9,46.7,30.24,ENE,68,0.3,0.4,64,0.00,,,0.00,WUHU216HW,2013-05-26 06:31:00,
2013-05-26 02:36:00,59.0,46.8,30.25,NNE,23,1.3,1.3,64,0.00,,,0.00,WUHU216HW,2013-05-26 06:36:00,
2013-05-26 02:41:00,59.0,46.8,30.25,North,0,1.1,1.3,64,0.00,,,0.00,WUHU216HW,2013-05-26 06:41:00,
2013-05-26 02:46:00,59.0,46.8,30.25,NNE,23,0.9,1.3,64,0.00,,,0.00,WUHU216HW,2013-05-26 06:46:00,
2013-05-26 02:51:00,59.0,46.8,30.25,NNE,23,0.4,0.9,64,0.00,,,0.00,WUHU216HW,2013-05-26 06:51:00,
2013-05-26 02:56:00,59.0,46.8,30.25,NNE,23,0.0,0.9,64,0.00,,,0.00,WUHU216HW,2013-05-26 06:56:00,
2013-05-26 03:01:00,59.0,47.7,30.25,NNE,23,0.0,0.4,66,0.00,,,0.00,WUHU216HW,2013-05-26 07:01:00,
2013-05-26 03:06:00,59.0,48.1,30.25,NNE,23,1.8,1.8,67,0.00,,,0.00,WUHU216HW,2013-05-26 07:06:00,
2013-05-26 03:11:00,59.2,48.2,30.25,North,5,0.8,1.8,67,0.00,,,0.00,WUHU216HW,2013-05-26 07:11:00,
2013-05-26 03:16:00,59.4,48.4,30.25,ENE,68,0.4,1.8,67,0.00,,,0.00,WUHU216HW,2013-05-26 07:16:00,
2013-05-26 03:22:00,59.4,48.1,30.25,ENE,68,0.4,0.7,66,0.00,,,0.00,WUHU216HW,2013-05-26 07:22:00,
2013-05-26 03:27:00,59.4,48.1,30.25,ENE,62,0.7,0.9,66,0.00,,,0.00,WUHU216HW,2013-05-26 07:27:00,
2013-05-26 03:32:00,59.4,48.1,30.25,ENE,68,0.0,0.9,66,0.00,,,0.00,WUHU216HW,2013-05-26 07:32:00,
2013-05-26 03:37:00,59.4,48.1,30.25,East,90,0.0,0.4,66,0.00,,,0.00,WUHU216HW,2013-05-26 07:37:00,
2013-05-26 03:42:00,59.0,47.3,30.25,NE,45,0.9,0.9,65,0.00,,,0.00,WUHU216HW,2013-05-26 07:42:00,
2013-05-26 03:47:00,59.0,46.8,30.25,NE,45,0.9,0.9,64,0.00,,,0.00,WUHU216HW,2013-05-26 07:47:00,
2013-05-26 03:52:00,58.9,47.1,30.25,North,0,0.0,0.9,65,0.00,,,0.00,WUHU216HW,2013-05-26 07:52:00,
2013-05-26 03:57:00,58.7,47.4,30.25,NNE,23,1.6,1.6,66,0.00,,,0.00,WUHU216HW,2013-05-26 07:57:00,
2013-05-26 04:03:00,58.5,47.5,30.25,SW,225,0.0,1.6,67,0.00,,,0.00,WUHU216HW,2013-05-26 08:03:00,
2013-05-26 04:08:00,58.3,47.3,30.25,ESE,113,0.9,0.9,67,0.00,,,0.00,WUHU216HW,2013-05-26 08:08:00,
2013-05-26 04:13:00,58.1,47.3,30.25,SSE,158,0.0,0.9,67,0.00,,,0.00,WUHU216HW,2013-05-26 08:13:00,
2013-05-26 04:18:00,58.0,46.6,30.25,NNW,338,0.0,0.9,66,0.00,,,0.00,WUHU216HW,2013-05-26 08:18:00,
2013-05-26 04:23:00,58.0,46.6,30.26,NNW,338,0.0,0.0,66,0.00,,,0.00,WUHU216HW,2013-05-26 08:23:00,
2013-05-26 04:28:00,58.0,46.6,30.25,NNW,338,0.0,0.0,66,0.00,,,0.00,WUHU216HW,2013-05-26 08:28:00,
2013-05-26 04:33:00,57.8,46.9,30.25,SE,135,0.0,0.0,67,0.00,,,0.00,WUHU216HW,2013-05-26 08:33:00,
2013-05-26 04:38:00,57.6,46.7,30.25,East,90,0.0,0.0,67,0.00,,,0.00,WUHU216HW,2013-05-26 08:38:00,
2013-05-26 04:43:00,57.6,46.7,30.26,NE,45,0.0,0.0,67,0.00,,,0.00,WUHU216HW,2013-05-26 08:43:00,
2013-05-26 04:48:00,57.4,46.5,30.26,SE,135,0.0,0.0,67,0.00,,,0.00,WUHU216HW,2013-05-26 08:48:00,
2013-05-26 04:53:00,57.2,46.7,30.26,SE,135,0.4,0.4,68,0.00,,,0.00,WUHU216HW,2013-05-26 08:53:00,
2013-05-26 04:59:00,57.2,46.4,30.26,SE,135,0.9,0.9,67,0.00,,,0.00,WUHU216HW,2013-05-26 08:59:00,
2013-05-26 05:04:00,57.2,45.9,30.26,ESE,113,0.4,0.9,66,0.00,,,0.00,WUHU216HW,2013-05-26 09:04:00,
2013-05-26 05:09:00,57.6,45.9,30.26,SSE,158,0.9,0.9,65,0.00,,,0.00,WUHU216HW,2013-05-26 09:09:00,
2013-05-26 05:14:00,57.8,45.6,30.27,NNE,23,1.1,1.1,64,0.00,,,0.00,WUHU216HW,2013-05-26 09:14:00,
2013-05-26 05:19:00,57.8,45.3,30.28,NNE,23,1.1,1.1,63,0.00,,,0.00,WUHU216HW,2013-05-26 09:19:00,
2013-05-26 05:24:00,58.0,45.5,30.28,NE,45,0.0,1.1,63,0.00,,,0.00,WUHU216HW,2013-05-26 09:24:00,
2013-05-26 05:29:00,57.6,45.1,30.28,North,0,0.0,0.0,63,0.00,,,0.00,WUHU216HW,2013-05-26 09:29:00,
2013-05-26 05:34:00,57.2,45.2,30.28,North,0,0.0,0.0,64,0.00,,,0.00,WUHU216HW,2013-05-26 09:34:00,
2013-05-26 05:40:00,56.7,44.7,30.28,NNE,23,0.0,0.0,64,0.00,,,0.00,WUHU216HW,2013-05-26 09:40:00,
2013-05-26 05:45:00,56.5,44.5,30.29,NE,45,0.0,0.0,64,0.00,,,0.00,WUHU216HW,2013-05-26 09:45:00,
2013-05-26 05:50:00,56.2,44.6,30.29,NE,45,0.0,0.0,65,0.00,,,0.00,WUHU216HW,2013-05-26 09:50:00,
2013-05-26 05:55:00,55.8,44.2,30.29,NE,45,0.0,0.0,65,0.00,,,0.00,WUHU216HW,2013-05-26 09:55:00,
2013-05-26 06:00:00,55.3,44.1,30.29,NE,45,0.0,0.0,66,0.00,,,0.00,WUHU216HW,2013-05-26 10:00:00,
2013-05-26 06:05:00,55.1,44.3,30.30,NNW,338,0.0,0.0,67,0.00,,,0.00,WUHU216HW,2013-05-26 10:05:00,
2013-05-26 06:10:00,54.9,44.1,30.30,North,0,0.0,0.0,67,0.00,,,0.00,WUHU216HW,2013-05-26 10:10:00,
2013-05-26 06:15:00,54.5,44.2,30.30,North,0,0.0,0.0,68,0.00,,,0.00,WUHU216HW,2013-05-26 10:15:00,
2013-05-26 06:20:00,54.4,44.0,30.31,North,0,0.0,0.0,68,0.00,,,0.00,WUHU216HW,2013-05-26 10:20:00,
2013-05-26 06:25:00,54.2,43.8,30.31,North,0,0.0,0.0,68,0.00,,,0.00,WUHU216HW,2013-05-26 10:25:00,
2013-05-26 06:30:00,54.0,44.1,30.30,NE,45,0.0,0.0,69,0.00,,,0.00,WUHU216HW,2013-05-26 10:30:00,
2013-05-26 06:35:00,53.8,43.9,30.30,SSE,158,0.0,0.0,69,0.00,,,0.00,WUHU216HW,2013-05-26 10:35:00,
2013-05-26 06:40:00,53.6,43.8,30.31,East,90,0.0,0.0,69,0.00,,,0.00,WUHU216HW,2013-05-26 10:40:00,
2013-05-26 06:46:00,53.6,44.1,30.31,NE,45,0.0,0.0,70,0.00,,,0.00,WUHU216HW,2013-05-26 10:46:00,
2013-05-26 06:51:00,53.5,44.3,30.32,NNE,23,0.0,0.0,71,0.00,,,0.00,WUHU216HW,2013-05-26 10:51:00,
2013-05-26 06:56:00,53.6,44.5,30.32,NNW,338,0.0,0.0,71,0.00,,,0.00,WUHU216HW,2013-05-26 10:56:00,
2013-05-26 07:01:00,53.8,45.0,30.33,North,0,0.9,0.9,72,0.00,,,0.00,WUHU216HW,2013-05-26 11:01:00,
2013-05-26 07:06:00,54.0,44.8,30.33,NE,45,0.4,0.9,71,0.00,,,0.00,WUHU216HW,2013-05-26 11:06:00,
2013-05-26 07:11:00,54.5,45.4,30.34,NE,45,0.8,0.9,71,0.00,,,0.00,WUHU216HW,2013-05-26 11:11:00,
2013-05-26 07:16:00,54.9,45.4,30.34,North,0,0.2,0.9,70,0.00,,,0.00,WUHU216HW,2013-05-26 11:16:00,
2013-05-26 07:21:00,55.1,45.5,30.33,ENE,68,0.0,0.2,70,0.00,,,0.00,WUHU216HW,2013-05-26 11:21:00,
2013-05-26 07:26:00,55.4,45.9,30.33,SSE,158,1.1,1.1,70,0.00,,,0.00,WUHU216HW,2013-05-26 11:26:00,
2013-05-26 07:31:00,55.4,46.3,30.33,SSE,158,1.8,1.8,71,0.00,,,0.00,WUHU216HW,2013-05-26 11:31:00,
2013-05-26 07:36:00,55.6,46.5,30.33,NNW,338,0.0,1.8,71,0.00,,,0.00,WUHU216HW,2013-05-26 11:36:00,
2013-05-26 07:42:00,55.8,46.5,30.33,West,270,0.4,1.8,71,0.00,,,0.00,WUHU216HW,2013-05-26 11:42:00,
2013-05-26 07:47:00,56.0,46.7,30.34,NW,315,0.0,0.4,71,0.00,,,0.00,WUHU216HW,2013-05-26 11:47:00,
2013-05-26 07:52:00,56.2,46.9,30.33,ENE,68,0.0,0.0,71,0.00,,,0.00,WUHU216HW,2013-05-26 11:52:00,
2013-05-26 07:57:00,56.3,47.1,30.34,North,0,0.4,0.4,71,0.00,,,0.00,WUHU216HW,2013-05-26 11:57:00,
2013-05-26 08:02:00,56.2,47.6,30.34,ENE,68,0.0,0.4,73,0.00,,,0.00,WUHU216HW,2013-05-26 12:02:00,
2013-05-26 08:07:00,56.0,47.4,30.34,NNW,338,0.0,0.4,73,0.00,,,0.00,WUHU216HW,2013-05-26 12:07:00,
2013-05-26 08:12:00,56.0,47.4,30.35,NE,45,0.4,0.4,73,0.00,,,0.00,WUHU216HW,2013-05-26 12:12:00,
2013-05-26 08:17:00,56.0,47.4,30.35,NE,45,0.4,0.4,73,0.00,,,0.00,WUHU216HW,2013-05-26 12:17:00,
2013-05-26 08:22:00,56.2,47.6,30.35,NE,45,0.0,0.4,73,0.00,,,0.00,WUHU216HW,2013-05-26 12:22:00,
2013-05-26 08:28:00,56.5,48.0,30.34,NNE,23,0.9,0.9,73,0.00,,,0.00,WUHU216HW,2013-05-26 12:28:00,
2013-05-26 08:32:00,56.5,48.0,30.34,NNE,23,0.9,0.9,73,0.00,,,0.00,WUHU216HW,2013-05-26 12:32:00,
2013-05-26 08:38:00,56.7,48.1,30.35,East,90,0.0,0.9,73,0.00,,,0.00,WUHU216HW,2013-05-26 12:38:00,
2013-05-26 08:43:00,56.9,48.2,30.35,SSE,158,0.4,0.4,73,0.00,,,0.00,WUHU216HW,2013-05-26 12:43:00,
2013-05-26 08:48:00,57.2,48.6,30.36,NNW,338,0.0,0.4,73,0.00,,,0.00,WUHU216HW,2013-05-26 12:48:00,
2013-05-26 08:53:00,57.6,49.3,30.36,North,0,0.4,0.4,74,0.00,,,0.00,WUHU216HW,2013-05-26 12:53:00,
2013-05-26 08:58:00,57.8,49.1,30.35,NNE,23,0.2,0.9,73,0.00,,,0.00,WUHU216HW,2013-05-26 12:58:00,
2013-05-26 09:03:00,58.9,49.9,30.36,North,0,0.2,0.9,72,0.00,,,0.00,WUHU216HW,2013-05-26 13:03:00,
2013-05-26 09:08:00,59.4,49.7,30.36,North,0,0.2,0.2,70,0.00,,,0.00,WUHU216HW,2013-05-26 13:08:00,
2013-05-26 09:13:00,59.8,49.6,30.36,ESE,113,0.0,0.2,69,0.00,,,0.00,WUHU216HW,2013-05-26 13:13:00,
2013-05-26 09:18:00,60.1,50.0,30.36,SE,135,0.0,0.0,69,0.00,,,0.00,WUHU216HW,2013-05-26 13:18:00,
2013-05-26 09:23:00,61.0,50.5,30.36,SSW,203,0.4,0.4,68,0.00,,,0.00,WUHU216HW,2013-05-26 13:23:00,
2013-05-26 09:28:00,61.6,51.4,30.36,SW,225,0.0,0.4,69,0.00,,,0.00,WUHU216HW,2013-05-26 13:28:00,
2013-05-26 09:33:00,62.3,52.0,30.36,SSE,158,2.0,2.0,69,0.00,,,0.00,WUHU216HW,2013-05-26 13:33:00,
2013-05-26 09:38:00,63.4,51.8,30.36,ESE,113,0.9,2.0,66,0.00,,,0.00,WUHU216HW,2013-05-26 13:38:00,
2013-05-26 09:44:00,64.1,51.6,30.36,SE,135,0.4,2.0,64,0.00,,,0.00,WUHU216HW,2013-05-26 13:44:00,
2013-05-26 09:48:00,64.3,51.4,30.36,NNW,338,0.4,0.4,63,0.00,,,0.00,WUHU216HW,2013-05-26 13:48:00,
2013-05-26 09:54:00,64.6,51.3,30.36,North,0,3.6,3.6,62,0.00,,,0.00,WUHU216HW,2013-05-26 13:54:00,
2013-05-26 09:59:00,64.8,50.6,30.36,North,354,1.3,3.6,60,0.00,,,0.00,WUHU216HW,2013-05-26 13:59:00,
2013-05-26 10:04:00,65.5,51.3,30.36,SSW,203,1.8,1.8,60,0.00,,,0.00,WUHU216HW,2013-05-26 14:04:00,
2013-05-26 10:09:00,66.2,52.0,30.36,SW,220,0.8,1.8,60,0.00,,,0.00,WUHU216HW,2013-05-26 14:09:00,
2013-05-26 10:14:00,66.1,49.0,30.36,NE,45,2.0,2.0,54,0.00,,,0.00,WUHU216HW,2013-05-26 14:14:00,
2013-05-26 10:19:00,65.5,48.4,30.35,North,0,0.7,2.0,54,0.00,,,0.00,WUHU216HW,2013-05-26 14:19:00,
2013-05-26 10:24:00,65.3,48.7,30.35,SE,141,1.6,2.2,55,0.00,,,0.00,WUHU216HW,2013-05-26 14:24:00,
2013-05-26 10:29:00,66.1,49.4,30.35,WNW,293,0.7,2.2,55,0.00,,,0.00,WUHU216HW,2013-05-26 14:29:00,
2013-05-26 10:34:00,65.9,48.2,30.35,NNE,23,2.9,2.9,53,0.00,,,0.00,WUHU216HW,2013-05-26 14:34:00,
2013-05-26 10:39:00,65.3,48.3,30.35,SE,135,0.9,2.9,54,0.00,,,0.00,WUHU216HW,2013-05-26 14:39:00,
2013-05-26 10:44:00,65.3,48.7,30.36,NNE,23,0.4,2.9,55,0.00,,,0.00,WUHU216HW,2013-05-26 14:44:00,
2013-05-26 10:50:00,65.5,48.9,30.36,NNE,23,0.4,0.9,55,0.00,,,0.00,WUHU216HW,2013-05-26 14:50:00,
2013-05-26 10:55:00,66.2,49.6,30.36,ENE,68,0.0,0.4,55,0.00,,,0.00,WUHU216HW,2013-05-26 14:55:00,
2013-05-26 11:00:00,67.5,50.8,30.36,SSE,158,1.6,1.6,55,0.00,,,0.00,WUHU216HW,2013-05-26 15:00:00,
2013-05-26 11:05:00,67.5,48.3,30.36,SW,223,1.2,1.6,50,0.00,,,0.00,WUHU216HW,2013-05-26 15:05:00,
2013-05-26 11:10:00,67.3,49.2,30.36,NNW,338,0.4,1.6,52,0.00,,,0.00,WUHU216HW,2013-05-26 15:10:00,
2013-05-26 11:15:00,67.5,47.1,30.36,NNE,23,0.7,0.7,48,0.00,,,0.00,WUHU216HW,2013-05-26 15:15:00,
2013-05-26 11:20:00,67.7,47.9,30.36,NNW,338,1.6,1.6,49,0.00,,,0.00,WUHU216HW,2013-05-26 15:20:00,
2013-05-26 11:25:00,68.6,48.1,30.35,NW,315,1.8,1.8,48,0.00,,,0.00,WUHU216HW,2013-05-26 15:25:00,
2013-05-26 11:30:00,69.1,48.0,30.35,North,0,1.1,1.8,47,0.00,,,0.00,WUHU216HW,2013-05-26 15:30:00,
2013-05-26 11:35:00,69.8,51.0,30.35,ENE,68,1.8,1.8,51,0.00,,,0.00,WUHU216HW,2013-05-26 15:35:00,
2013-05-26 11:40:00,70.9,50.8,30.35,ENE,68,3.4,3.4,49,0.00,,,0.00,WUHU216HW,2013-05-26 15:40:00,
2013-05-26 11:45:00,71.3,51.7,30.35,South,180,2.7,3.4,50,0.00,,,0.00,WUHU216HW,2013-05-26 15:45:00,
2013-05-26 11:50:00,72.0,50.6,30.35,ENE,68,1.8,3.4,47,0.00,,,0.00,WUHU216HW,2013-05-26 15:50:00,
2013-05-26 11:55:00,71.1,50.9,30.35,ESE,119,1.0,2.7,49,0.00,,,0.00,WUHU216HW,2013-05-26 15:55:00,
2013-05-26 12:00:00,71.5,50.7,30.35,SSW,203,2.5,2.5,48,0.00,,,0.00,WUHU216HW,2013-05-26 16:00:00,
2013-05-26 12:06:00,72.5,52.2,30.36,WSW,248,1.8,2.5,49,0.00,,,0.00,WUHU216HW,2013-05-26 16:06:00,
2013-05-26 12:11:00,73.6,52.7,30.35,South,180,1.1,2.5,48,0.00,,,0.00,WUHU216HW,2013-05-26 16:11:00,
2013-05-26 12:16:00,74.5,51.7,30.35,ESE,116,2.5,2.7,45,0.00,,,0.00,WUHU216HW,2013-05-26 16:16:00,
2013-05-26 12:21:00,74.5,52.9,30.35,SW,225,2.0,2.7,47,0.00,,,0.00,WUHU216HW,2013-05-26 16:21:00,
2013-05-26 12:26:00,75.2,54.2,30.35,SSW,203,1.8,2.0,48,0.00,,,0.00,WUHU216HW,2013-05-26 16:26:00,
2013-05-26 12:31:00,75.8,52.8,30.35,NNE,23,2.5,2.5,45,0.00,,,0.00,WUHU216HW,2013-05-26 16:31:00,
2013-05-26 12:36:00,73.4,50.0,30.35,North,0,2.2,2.5,44,0.00,,,0.00,WUHU216HW,2013-05-26 16:36:00,
2013-05-26 12:41:00,73.1,49.1,30.34,NNW,338,2.0,2.2,43,0.00,,,0.00,WUHU216HW,2013-05-26 16:41:00,
2013-05-26 12:46:00,73.1,50.9,30.34,WNW,293,2.0,2.2,46,0.00,,,0.00,WUHU216HW,2013-05-26 16:46:00,
2013-05-26 12:52:00,74.5,53.6,30.34,SSW,206,2.6,3.8,48,0.00,,,0.00,WUHU216HW,2013-05-26 16:52:00,
2013-05-26 12:57:00,74.0,50.0,30.33,North,0,3.4,3.8,43,0.00,,,0.00,WUHU216HW,2013-05-26 16:57:00,
2013-05-26 13:02:00,73.6,49.1,30.33,NW,315,1.8,3.4,42,0.00,,,0.00,WUHU216HW,2013-05-26 17:02:00,
2013-05-26 13:07:00,73.8,51.0,30.33,SW,225,2.9,3.4,45,0.00,,,0.00,WUHU216HW,2013-05-26 17:07:00,
2013-05-26 13:12:00,74.2,50.1,30.33,North,0,3.1,3.1,43,0.00,,,0.00,WUHU216HW,2013-05-26 17:12:00,
2013-05-26 13:17:00,73.6,49.1,30.33,West,270,1.3,3.1,42,0.00,,,0.00,WUHU216HW,2013-05-26 17:17:00,
2013-05-26 13:22:00,73.6,50.2,30.32,WSW,248,2.5,3.1,44,0.00,,,0.00,WUHU216HW,2013-05-26 17:22:00,
2013-05-26 13:28:00,74.7,50.7,30.33,WSW,248,5.4,5.4,43,0.00,,,0.00,WUHU216HW,2013-05-26 17:28:00,
2013-05-26 13:33:00,74.2,50.1,30.32,NNW,338,1.6,5.4,43,0.00,,,0.00,WUHU216HW,2013-05-26 17:33:00,
2013-05-26 13:38:00,74.0,50.6,30.32,NW,315,0.9,5.4,44,0.00,,,0.00,WUHU216HW,2013-05-26 17:38:00,
2013-05-26 13:43:00,74.5,51.7,30.32,West,261,1.7,2.2,45,0.00,,,0.00,WUHU216HW,2013-05-26 17:43:00,
2013-05-26 13:48:00,74.9,51.4,30.32,WNW,293,2.7,2.7,44,0.00,,,0.00,WUHU216HW,2013-05-26 17:48:00,
2013-05-26 13:53:00,74.9,50.2,30.32,WSW,248,2.5,2.7,42,0.00,,,0.00,WUHU216HW,2013-05-26 17:53:00,
2013-05-26 13:58:00,76.0,52.4,30.31,SE,135,5.4,5.4,44,0.00,,,0.00,WUHU216HW,2013-05-26 17:58:00,
2013-05-26 14:03:00,76.3,52.1,30.31,South,169,3.1,5.4,43,0.00,,,0.00,WUHU216HW,2013-05-26 18:03:00,
2013-05-26 14:08:00,76.0,51.2,30.31,WSW,248,2.2,5.4,42,0.00,,,0.00,WUHU216HW,2013-05-26 18:08:00,
2013-05-26 14:13:00,75.6,51.5,30.31,WSW,248,2.2,2.2,43,0.00,,,0.00,WUHU216HW,2013-05-26 18:13:00,
2013-05-26 14:18:00,75.6,51.5,30.31,West,265,2.6,2.7,43,0.00,,,0.00,WUHU216HW,2013-05-26 18:18:00,
2013-05-26 14:23:00,76.5,52.9,30.31,SW,215,2.5,3.4,44,0.00,,,0.00,WUHU216HW,2013-05-26 18:23:00,
2013-05-26 14:28:00,77.0,53.4,30.30,SSW,203,1.3,3.4,44,0.00,,,0.00,WUHU216HW,2013-05-26 18:28:00,
2013-05-26 14:34:00,77.4,53.7,30.30,SSE,158,2.0,2.0,44,0.00,,,0.00,WUHU216HW,2013-05-26 18:34:00,
2013-05-26 14:39:00,77.8,52.8,30.30,SSW,200,2.3,2.5,42,0.00,,,0.00,WUHU216HW,2013-05-26 18:39:00,
2013-05-26 14:44:00,77.4,53.7,30.29,SSW,203,2.5,2.5,44,0.00,,,0.00,WUHU216HW,2013-05-26 18:44:00,
2013-05-26 14:49:00,77.2,53.6,30.29,South,180,3.1,3.1,44,0.00,,,0.00,WUHU216HW,2013-05-26 18:49:00,
2013-05-26 14:54:00,77.2,54.2,30.28,SSE,158,2.9,3.1,45,0.00,,,0.00,WUHU216HW,2013-05-26 18:54:00,
2013-05-26 14:59:00,77.8,54.0,30.28,South,180,3.3,3.6,44,0.00,,,0.00,WUHU216HW,2013-05-26 18:59:00,
2013-05-26 15:04:00,78.3,55.2,30.29,ESE,113,1.3,3.6,45,0.00,,,0.00,WUHU216HW,2013-05-26 19:04:00,
2013-05-26 15:09:00,78.5,54.7,30.28,SSE,158,5.1,5.1,44,0.00,,,0.00,WUHU216HW,2013-05-26 19:09:00,
2013-05-26 15:14:00,78.5,54.7,30.28,South,180,1.8,5.1,44,0.00,,,0.00,WUHU216HW,2013-05-26 19:14:00,
2013-05-26 15:19:00,78.8,54.4,30.28,SSW,213,3.5,6.3,43,0.00,,,0.00,WUHU216HW,2013-05-26 19:19:00,
2013-05-26 15:25:00,78.8,54.4,30.28,WSW,248,4.0,6.3,43,0.00,,,0.00,WUHU216HW,2013-05-26 19:25:00,
2013-05-26 15:30:00,78.8,53.8,30.28,SSW,203,6.9,6.9,42,0.00,,,0.00,WUHU216HW,2013-05-26 19:30:00,
2013-05-26 15:35:00,79.2,54.7,30.27,ESE,113,3.9,6.9,43,0.00,,,0.00,WUHU216HW,2013-05-26 19:35:00,
2013-05-26 15:40:00,79.2,54.1,30.27,South,180,2.5,6.9,42,0.00,,,0.00,WUHU216HW,2013-05-26 19:40:00,
2013-05-26 15:45:00,79.4,54.9,30.27,SSW,203,2.9,2.9,43,0.00,,,0.00,WUHU216HW,2013-05-26 19:45:00,
2013-05-26 15:50:00,79.6,55.1,30.27,West,270,3.6,3.6,43,0.00,,,0.00,WUHU216HW,2013-05-26 19:50:00,
2013-05-26 15:55:00,79.0,51.2,30.27,SE,135,3.8,3.8,38,0.00,,,0.00,WUHU216HW,2013-05-26 19:55:00,
2013-05-26 16:00:00,78.1,51.9,30.27,SSE,158,2.0,3.8,40,0.00,,,0.00,WUHU216HW,2013-05-26 20:00:00,
2013-05-26 16:05:00,77.9,52.4,30.26,West,270,1.1,3.8,41,0.00,,,0.00,WUHU216HW,2013-05-26 20:05:00,
2013-05-26 16:10:00,77.9,51.0,30.26,West,261,3.6,4.0,39,0.00,,,0.00,WUHU216HW,2013-05-26 20:10:00,
2013-05-26 16:15:00,77.8,51.6,30.26,WNW,293,1.3,4.0,40,0.00,,,0.00,WUHU216HW,2013-05-26 20:15:00,
2013-05-26 16:20:00,78.1,53.1,30.26,SW,225,5.1,5.1,42,0.00,,,0.00,WUHU216HW,2013-05-26 20:20:00,
2013-05-26 16:25:00,78.5,52.8,30.26,SSE,158,2.9,5.1,41,0.00,,,0.00,WUHU216HW,2013-05-26 20:25:00,
2013-05-26 16:31:00,78.7,53.7,30.26,WSW,248,3.1,5.1,42,0.00,,,0.00,WUHU216HW,2013-05-26 20:31:00,
2013-05-26 16:36:00,78.5,52.2,30.25,WNW,293,4.9,4.9,40,0.00,,,0.00,WUHU216HW,2013-05-26 20:36:00,
2013-05-26 16:41:00,78.3,52.1,30.25,West,270,4.0,4.9,40,0.00,,,0.00,WUHU216HW,2013-05-26 20:41:00,
2013-05-26 16:46:00,78.1,52.6,30.25,South,180,4.0,4.9,41,0.00,,,0.00,WUHU216HW,2013-05-26 20:46:00,
2013-05-26 16:51:00,78.8,53.8,30.25,SSW,203,2.9,4.0,42,0.00,,,0.00,WUHU216HW,2013-05-26 20:51:00,
2013-05-26 16:56:00,79.2,52.9,30.25,SSE,158,1.6,4.0,40,0.00,,,0.00,WUHU216HW,2013-05-26 20:56:00,
2013-05-26 17:01:00,79.6,53.2,30.25,West,259,3.8,4.0,40,0.00,,,0.00,WUHU216HW,2013-05-26 21:01:00,
2013-05-26 17:07:00,79.2,52.9,30.25,WNW,293,4.5,4.5,40,0.00,,,0.00,WUHU216HW,2013-05-26 21:07:00,
2013-05-26 17:12:00,79.4,53.6,30.25,WSW,248,4.3,4.5,41,0.00,,,0.00,WUHU216HW,2013-05-26 21:12:00,
2013-05-26 17:17:00,79.4,53.6,30.25,WSW,248,4.9,4.9,41,0.00,,,0.00,WUHU216HW,2013-05-26 21:17:00,
2013-05-26 17:22:00,79.2,53.5,30.25,SSW,203,3.4,4.9,41,0.00,,,0.00,WUHU216HW,2013-05-26 21:22:00,
2013-05-26 17:27:00,79.6,53.8,30.25,NW,315,1.6,4.9,41,0.00,,,0.00,WUHU216HW,2013-05-26 21:27:00,
2013-05-26 17:32:00,79.4,53.6,30.25,South,180,3.4,3.4,41,0.00,,,0.00,WUHU216HW,2013-05-26 21:32:00,
2013-05-26 17:37:00,79.4,53.6,30.25,West,262,2.9,4.3,41,0.00,,,0.00,WUHU216HW,2013-05-26 21:37:00,
2013-05-26 17:42:00,79.2,53.5,30.25,South,180,5.4,5.4,41,0.00,,,0.00,WUHU216HW,2013-05-26 21:42:00,
2013-05-26 17:47:00,78.8,53.2,30.25,SW,225,3.4,5.4,41,0.00,,,0.00,WUHU216HW,2013-05-26 21:47:00,
2013-05-26 17:52:00,78.5,52.8,30.25,WSW,248,4.7,5.4,41,0.00,,,0.00,WUHU216HW,2013-05-26 21:52:00,
2013-05-26 17:57:00,78.1,53.1,30.25,SSE,162,2.1,4.7,42,0.00,,,0.00,WUHU216HW,2013-05-26 21:57:00,
2013-05-26 18:02:00,78.1,53.1,30.25,SW,225,1.3,4.7,42,0.00,,,0.00,WUHU216HW,2013-05-26 22:02:00,
2013-05-26 18:08:00,77.4,51.8,30.25,SSE,158,3.4,3.4,41,0.00,,,0.00,WUHU216HW,2013-05-26 22:08:00,
2013-05-26 18:13:00,77.4,52.5,30.25,SSW,202,3.1,3.4,42,0.00,,,0.00,WUHU216HW,2013-05-26 22:13:00,
2013-05-26 18:18:00,77.2,52.3,30.25,SE,135,1.6,3.4,42,0.00,,,0.00,WUHU216HW,2013-05-26 22:18:00,
2013-05-26 18:23:00,77.2,52.9,30.25,SE,135,3.4,3.4,43,0.00,,,0.00,WUHU216HW,2013-05-26 22:23:00,
2013-05-26 18:28:00,77.0,52.7,30.25,South,180,2.9,3.4,43,0.00,,,0.00,WUHU216HW,2013-05-26 22:28:00,
2013-05-26 18:33:00,76.7,51.8,30.25,SW,225,1.8,3.4,42,0.00,,,0.00,WUHU216HW,2013-05-26 22:33:00,
2013-05-26 18:38:00,76.9,52.7,30.25,WNW,293,2.9,2.9,43,0.00,,,0.00,WUHU216HW,2013-05-26 22:38:00,
2013-05-26 18:43:00,77.2,52.9,30.25,SSE,158,4.6,4.7,43,0.00,,,0.00,WUHU216HW,2013-05-26 22:43:00,
2013-05-26 18:48:00,77.2,52.3,30.25,South,173,3.2,4.7,42,0.00,,,0.00,WUHU216HW,2013-05-26 22:48:00,
2013-05-26 18:53:00,76.9,52.0,30.25,South,180,2.7,4.0,42,0.00,,,0.00,WUHU216HW,2013-05-26 22:53:00,
2013-05-26 18:59:00,76.7,52.5,30.25,South,180,1.8,2.9,43,0.00,,,0.00,WUHU216HW,2013-05-26 22:59:00,
2013-05-26 19:04:00,77.6,52.7,30.25,WSW,248,1.6,2.7,42,0.00,,,0.00,WUHU216HW,2013-05-26 23:04:00,
2013-05-26 19:09:00,79.4,54.3,30.25,SSE,164,1.0,1.8,42,0.00,,,0.00,WUHU216HW,2013-05-26 23:09:00,
2013-05-26 19:14:00,82.8,56.7,30.25,South,180,3.1,3.1,41,0.00,,,0.00,WUHU216HW,2013-05-26 23:14:00,
2013-05-26 19:19:00,85.9,57.3,30.25,WSW,248,3.4,3.4,38,0.00,,,0.00,WUHU216HW,2013-05-26 23:19:00,
2013-05-26 19:24:00,86.6,57.2,30.25,SW,226,1.8,3.4,37,0.00,,,0.00,WUHU216HW,2013-05-26 23:24:00,
2013-05-26 19:29:00,85.9,54.9,30.25,SW,225,2.2,3.4,35,0.00,,,0.00,WUHU216HW,2013-05-26 23:29:00,
2013-05-26 19:34:00,84.6,53.8,30.25,SSW,203,1.8,3.4,35,0.00,,,0.00,WUHU216HW,2013-05-26 23:34:00,
2013-05-26 19:39:00,82.4,53.5,30.25,SSE,158,1.8,2.2,37,0.00,,,0.00,WUHU216HW,2013-05-26 23:39:00,
2013-05-26 19:44:00,79.9,52.0,30.25,SSW,203,1.1,1.8,38,0.00,,,0.00,WUHU216HW,2013-05-26 23:44:00,
2013-05-26 19:49:00,76.3,51.0,30.25,South,180,1.6,1.8,41,0.00,,,0.00,WUHU216HW,2013-05-26 23:49:00,
2013-05-26 19:55:00,75.2,50.6,30.25,SSE,158,1.8,1.8,42,0.00,,,0.00,WUHU216HW,2013-05-26 23:55:00,
2013-05-26 20:00:00,74.0,50.6,30.25,SE,135,1.8,1.8,44,0.00,,,0.00,WUHU216HW,2013-05-27 00:00:00,
2013-05-26 20:05:00,73.1,50.3,30.25,SSE,158,0.4,1.8,45,0.00,,,0.00,WUHU216HW,2013-05-27 00:05:00,
2013-05-26 20:10:00,72.4,50.3,30.25,SSE,158,0.2,1.8,46,0.00,,,0.00,WUHU216HW,2013-05-27 00:10:00,
2013-05-26 20:15:00,70.9,50.2,30.25,SSE,158,0.3,0.4,48,0.00,,,0.00,WUHU216HW,2013-05-27 00:15:00,
2013-05-26 20:20:00,70.4,50.3,30.26,SSE,158,0.0,0.4,49,0.00,,,0.00,WUHU216HW,2013-05-27 00:20:00,
2013-05-26 20:25:00,69.8,50.4,30.25,South,180,0.0,0.2,50,0.00,,,0.00,WUHU216HW,2013-05-27 00:25:00,
2013-05-26 20:30:00,68.9,49.6,30.25,SSE,158,0.0,0.0,50,0.00,,,0.00,WUHU216HW,2013-05-27 00:30:00,
2013-05-26 20:35:00,68.4,49.6,30.25,SE,135,0.0,0.0,51,0.00,,,0.00,WUHU216HW,2013-05-27 00:35:00,
2013-05-26 20:40:00,67.9,49.2,30.25,SE,135,0.0,0.0,51,0.00,,,0.00,WUHU216HW,2013-05-27 00:40:00,
2013-05-26 20:46:00,67.0,49.2,30.25,ESE,113,0.4,0.4,53,0.00,,,0.00,WUHU216HW,2013-05-27 00:46:00,
2013-05-26 20:51:00,66.4,49.2,30.25,ESE,113,0.4,0.4,54,0.00,,,0.00,WUHU216HW,2013-05-27 00:51:00,
2013-05-26 20:56:00,66.1,49.4,30.25,SW,225,0.2,0.4,55,0.00,,,0.00,WUHU216HW,2013-05-27 00:56:00,
2013-05-26 21:01:00,65.7,49.1,30.25,WSW,248,0.0,0.2,55,0.00,,,0.00,WUHU216HW,2013-05-27 01:01:00,
2013-05-26 21:06:00,65.2,49.0,30.25,WSW,248,0.0,0.2,56,0.00,,,0.00,WUHU216HW,2013-05-27 01:06:00,
2013-05-26 21:11:00,64.8,48.6,30.25,SW,225,0.0,0.0,56,0.00,,,0.00,WUHU216HW,2013-05-27 01:11:00,
2013-05-26 21:16:00,64.4,49.2,30.26,ESE,113,1.1,1.1,58,0.00,,,0.00,WUHU216HW,2013-05-27 01:16:00,
2013-05-26 21:21:00,64.3,49.1,30.26,East,90,0.4,1.1,58,0.00,,,0.00,WUHU216HW,2013-05-27 01:21:00,
2013-05-26 21:27:00,63.9,49.8,30.26,ENE,68,0.0,1.1,60,0.00,,,0.00,WUHU216HW,2013-05-27 01:27:00,
2013-05-26 21:32:00,63.7,49.1,30.26,ESE,113,0.0,0.0,59,0.00,,,0.00,WUHU216HW,2013-05-27 01:32:00,
2013-05-26 21:37:00,63.5,49.4,30.26,SE,135,0.2,0.2,60,0.00,,,0.00,WUHU216HW,2013-05-27 01:37:00,
2013-05-26 21:42:00,63.0,49.0,30.26,SW,225,0.0,0.2,60,0.00,,,0.00,WUHU216HW,2013-05-27 01:42:00,
2013-05-26 21:47:00,62.8,48.8,30.26,ESE,113,0.0,0.2,60,0.00,,,0.00,WUHU216HW,2013-05-27 01:47:00,
2013-05-26 21:52:00,62.3,48.7,30.27,ESE,113,0.0,0.0,61,0.00,,,0.00,WUHU216HW,2013-05-27 01:52:00,
2013-05-26 21:57:00,62.3,49.5,30.27,East,90,0.0,0.0,63,0.00,,,0.00,WUHU216HW,2013-05-27 01:57:00,
2013-05-26 22:02:00,62.1,49.3,30.27,ESE,113,0.0,0.0,63,0.00,,,0.00,WUHU216HW,2013-05-27 02:02:00,
2013-05-26 22:07:00,61.9,49.2,30.27,SSE,158,0.0,0.0,63,0.00,,,0.00,WUHU216HW,2013-05-27 02:07:00,
2013-05-26 22:12:00,61.6,48.9,30.28,SSE,158,0.0,0.0,63,0.00,,,0.00,WUHU216HW,2013-05-27 02:12:00,
2013-05-26 22:18:00,61.6,48.9,30.28,SE,135,0.0,0.0,63,0.00,,,0.00,WUHU216HW,2013-05-27 02:18:00,
2013-05-26 22:23:00,61.4,48.7,30.28,SE,135,0.0,0.0,63,0.00,,,0.00,WUHU216HW,2013-05-27 02:23:00,
2013-05-26 22:28:00,60.8,48.6,30.28,West,270,0.0,0.0,64,0.00,,,0.00,WUHU216HW,2013-05-27 02:28:00,
2013-05-26 22:33:00,60.7,48.9,30.28,West,270,0.0,0.0,65,0.00,,,0.00,WUHU216HW,2013-05-27 02:33:00,
2013-05-26 22:38:00,60.5,48.7,30.28,West,270,0.0,0.0,65,0.00,,,0.00,WUHU216HW,2013-05-27 02:38:00,
2013-05-26 22:43:00,60.3,49.0,30.28,North,0,0.0,0.0,66,0.00,,,0.00,WUHU216HW,2013-05-27 02:43:00,
2013-05-26 22:48:00,60.5,49.5,30.28,NE,45,0.0,0.0,67,0.00,,,0.00,WUHU216HW,2013-05-27 02:48:00,
2013-05-26 22:53:00,60.3,49.8,30.28,NE,45,0.4,0.4,68,0.00,,,0.00,WUHU216HW,2013-05-27 02:53:00,
2013-05-26 22:59:00,60.3,49.8,30.28,NE,45,0.0,0.4,68,0.00,,,0.00,WUHU216HW,2013-05-27 02:59:00,
2013-05-26 23:04:00,60.1,49.6,30.28,NE,45,0.0,0.4,68,0.00,,,0.00,WUHU216HW,2013-05-27 03:04:00,
2013-05-26 23:09:00,59.8,49.2,30.28,NE,45,0.0,0.0,68,0.00,,,0.00,WUHU216HW,2013-05-27 03:09:00,
2013-05-26 23:14:00,59.6,49.1,30.28,NE,45,0.0,0.0,68,0.00,,,0.00,WUHU216HW,2013-05-27 03:14:00,
2013-05-26 23:19:00,59.4,48.9,30.28,NE,45,0.0,0.0,68,0.00,,,0.00,WUHU216HW,2013-05-27 03:19:00,
2013-05-26 23:24:00,59.2,49.1,30.28,NE,45,0.0,0.0,69,0.00,,,0.00,WUHU216HW,2013-05-27 03:24:00,
2013-05-26 23:29:00,59.0,48.9,30.28,NE,45,0.0,0.0,69,0.00,,,0.00,WUHU216HW,2013-05-27 03:29:00,
2013-05-26 23:34:00,59.0,48.9,30.28,NE,45,0.0,0.0,69,0.00,,,0.00,WUHU216HW,2013-05-27 03:34:00,
2013-05-26 23:39:00,58.9,48.7,30.28,NE,45,0.0,0.0,69,0.00,,,0.00,WUHU216HW,2013-05-27 03:39:00,
2013-05-26 23:44:00,58.7,48.5,30.28,NE,45,0.0,0.0,69,0.00,,,0.00,WUHU216HW,2013-05-27 03:44:00,
2013-05-26 23:49:00,58.3,48.6,30.28,NE,45,0.0,0.0,70,0.00,,,0.00,WUHU216HW,2013-05-27 03:49:00,
2013-05-26 23:54:00,58.3,48.6,30.28,NE,45,0.0,0.0,70,0.00,,,0.00,WUHU216HW,2013-05-27 03:54:00,
2013-05-26 23:59:00,58.0,48.2,30.28,NE,45,0.0,0.0,70,0.00,,,0.00,WUHU216HW,2013-05-27 03:59:00,